User: anonymous   Login
Location: Oshawa
(43.9000°N, 78.8670°W)
Time: 07:24:53
(UTC-05:00)
Language:

IDEFIX/ARIANE 42P - Orbit

View from above orbital plane
View from above orbital plane
View from above satellite
View from above satellite

Ground track
Ground track

The orbit data is extracted from the following two-line orbital elements,

1 27422U 02021B   14350.78254438  .00000340  00000-0  14996-3 0  6677
2 27422 098.2785 024.3822 0013241 067.1828 062.9664 14.29106859656210
Epoch (UTC): 16 December 2014 18:46:51
Eccentricity: 0.0013241
inclination: 98.2785°
perigee height: 785 km
apogee height: 804 km
right ascension of ascending node: 24.3822°
argument of perigee: 67.1828°
revolutions per day: 14.29106859
mean anomaly at epoch: 62.9664°
orbit number at epoch: 65621

The dashed part of the orbit path shows where the satellite is in the earth's shadow,  

DLR